Location: Melque
(41.0517°N, 4.4694°W)
Time: 03:16:06
(UTC+00:00)

Hubble Space Telescope - Pass Details

Date: 11 December 2025
Orbit: 479 x 482 km, 28.5° (Epoch: 13 January)

Event Time Altitude Azimuth Distance (km) Brightness Sun altitude
Rises 18:13:40 0° 223° (SW) 2,523 5.3 -15.3°
Reaches altitude 10° 18:17:45 10° 180° (S) 1,644 3.5 -16.1°
Maximum altitude 18:18:21 10° 171° (S) 1,625 3.3 -16.2°
Drops below altitude 10° 18:18:58 10° 161° (SSE) 1,644 3.2 -16.3°
Enters shadow 18:20:23 - 142° (SE) 1,827 3.3 -16.5°
